Regional Weather Roundup
Issued by NWS

Home | Current Version | Previous Version | Graphics & Text | Print | Product List | Glossary On
Versions: 1 2 3 4 5 6 7 8 9 10 11 12 13 14 15 16 17 18 19 20 21 22 23 24 25 26 27 28 29 30 31 32 33 34 35 36 37 38 39 40 41 42 43 44 45 46 47 48 49 50
000
ASUS43 KIND 252159
RWRIN

WEATHER ROUNDUP FOR INDIANA
NATIONAL WEATHER SERVICE INDIANAPOLIS IN
600 PM EDT MON JUL 25 2016

NOTE: "FAIR" INDICATES FEW OR NO CLOUDS BELOW 12,000 FEET WITH NO
SIGNIFICANT WEATHER AND/OR OBSTRUCTIONS TO VISIBILITY.

* - STATION DOES NOT REPORT WEATHER SUCH AS PRECIPITATION OR FOG.

+ - STATION NOT QUALITY CONTROLLED BY THE NATIONAL WEATHER SERVICE.
    USE DATA WITH CAUTION...ESPECIALLY DEWPOINT AND RELATIVE
    HUMIDITY OBSERVATIONS.

INZ001>003-010>013-019-020-252300-
NORTHWEST INDIANA

CITY           SKY/WX    TMP DP  RH WIND       PRES   REMARKS
GARY /AIRPORT/ PTSUNNY   82  63  51 NE7       29.99S
KNOX *+        MOSUNNY   82  48  30 N7        29.99F
MONTICELLO +   CLOUDY    82  67  60 N3        29.99S

$$

LMZ046-743>745-252300-
SOUTHERN LAKE MICHIGAN

STATION/POSITION TIME  TEMP    WIND        PRES    WAVE
                       AIR SEA DIR/SP/G            HT
                 (UTC) (F)     (DEG/KT/KT) (MB)    (FT)
BURNS HARBOR     2100   78      60/  7/  9 1015.9F
MICHIGAN CITY    2100   75      20/  5/  5   N/A
5NW MICH CITY    2100   75 77  100/  4/  4   N/A     1

$$

INZ004-005-014>016-021>024-252300-
NORTH CENTRAL INDIANA

CITY           SKY/WX    TMP DP  RH WIND       PRES   REMARKS
GOSHEN         MOSUNNY   85  60  42 NW10      29.98S
SOUTH BEND     MOSUNNY   81  63  54 NW12      30.00S

$$

INZ006>009-017-018-025>027-252300-
NORTHEAST INDIANA

CITY           SKY/WX    TMP DP  RH WIND       PRES   REMARKS
ANGOLA *+      SUNNY     86  81  84 W9        29.97S HX 102
FORT WAYNE     PTSUNNY   85  68  56 NW8       29.97F

$$

INZ028-029-035-036-043>045-051>053-252300-
WEST CENTRAL INDIANA

CITY           SKY/WX    TMP DP  RH WIND       PRES   REMARKS
CRAWFORDSVL +  MOSUNNY   82  73  74 W3        30.00R
LAFAYETTE      CLOUDY    83  71  67 N7        29.99S
TERRE HAUTE    MOSUNNY   86  73  65 N7        29.98F

$$

INZ030>032-037>040-046>048-054>057-064-065-252300-
CENTRAL INDIANA

CITY           SKY/WX    TMP DP  RH WIND       PRES   REMARKS
COLUMBUS       SUNNY     73  75 100 W7        29.98F
INDIANAPOLIS   PTSUNNY   88  71  57 NW10      29.99S
-EAGLE CREEK   LGT RAIN  84  74  71 NW9       29.98F
KOKOMO *+      MOSUNNY   84  70  61 NW8       29.99S
SHELBYVILLE    MOSUNNY   88  71  57 W9        29.97F

$$

INZ033-034-041-042-049-050-058-059-252300-
EAST CENTRAL INDIANA

CITY           SKY/WX    TMP DP  RH WIND       PRES   REMARKS
MUNCIE         CLOUDY    86  74  67 NW8       29.98F

$$

INZ060-061-067>069-081>083-085>088-252300-
SOUTHWEST INDIANA

CITY           SKY/WX    TMP DP  RH WIND       PRES   REMARKS
EVANSVILLE     PTSUNNY   81  75  82 E3        29.96F
HUNTINGBURG *+ CLOUDY    79  73  83 SE5       29.97F

$$

INZ062-063-066-070>080-084-089>092-252300-
SOUTH CENTRAL AND SOUTHEAST INDIANA

CITY           SKY/WX    TMP DP  RH WIND       PRES   REMARKS
BLOOMINGTON    CLOUDY    90  72  55 N5        29.99F HX  97
MADISON *+     CLOUDY    81  73  78 S3        30.01S

$$





USA.gov is the U.S. government's official web portal to all federal, state and local government web resources and services.